Weather History for Warrenton, VA

Change the Weather History Date:

Wednesday, February 13, 2013

  Actual Average (KHEF) Record (KHEF)
Temperature  
Mean Temperature 38 °F -  
Max Temperature 46 °F 45 °F 55 °F (2011)
Min Temperature 30 °F 24 °F 15 °F (2012)
Degree Days  
Heating Degree Days 27    
Moisture  
Dew Point 35 °F    
Average Humidity 87    
Maximum Humidity 100    
Minimum Humidity 69    
Precipitation  
Precipitation 0.07 in - - ()
Sea Level Pressure  
Sea Level Pressure 29.79 in    
Wind  
Wind Speed 5 mph (NNE)    
Max Wind Speed 8 mph    
Max Gust Speed -    
Visibility 8 miles    
Events Rain , Snow    
Averages and records for this station are not official NWS values.
T = Trace of Precipitation, MM = Missing Value Source: NWS Daily Summary

Daily Weather History Graph

Daily Weather History Graph

Search for Another Location

Airport:

Trip Planner

Search our weather history database for the weather conditions in past years. The results will help you decide how hot, cold, wet, or windy it might be!

Date:

Astronomy

Feb. 13, 2013 Rise Set
Actual Time 7:03 AM EST 5:46 PM EST
Civil Twilight 6:36 AM EST 6:14 PM EST
Nautical Twilight 6:05 AM EST 6:45 PM EST
Astronomical Twilight 5:34 AM EST 7:16 PM EST
Moon 8:35 AM EST (2/13) 9:44 PM EST (2/13)
Length of Visible Light 11h 37m
Length of Day
10h 43m
Waxing Crescent, 13% of the Moon is Illuminated
Feb 13
Waxing Crescent
Feb 17
First Quarter
Feb 25
Full
Mar 4
Last Quarter
Mar 11
New

Hourly Weather History & Observations

Time (EST) Temp. Windchill Dew Point Humidity Pressure Visibility Wind Dir Wind Speed Gust Speed Precip Events Conditions
12:15 AM 40.1 °F 35.3 °F 34.9 °F 82% 29.92 in 10.0 mi NNE 6.9 mph - N/A   Clear
12:35 AM 40.3 °F 37.1 °F 33.3 °F 76% 29.93 in 10.0 mi North 4.6 mph - N/A   Clear
12:55 AM 39.6 °F 35.4 °F 33.3 °F 78% 29.93 in 10.0 mi NNE 5.8 mph - N/A   Clear
1:15 AM 40.1 °F 36.1 °F 32.9 °F 75% 29.93 in 10.0 mi NE 5.8 mph - N/A   Clear
1:35 AM 39.7 °F 35.6 °F 32.9 °F 77% 29.92 in 10.0 mi NNE 5.8 mph - N/A   Clear
1:55 AM 39.0 °F 34.8 °F 33.1 °F 79% 29.91 in 10.0 mi NE 5.8 mph - N/A   Clear
2:15 AM 38.1 °F 33.7 °F 32.9 °F 81% 29.90 in 10.0 mi NNE 5.8 mph - N/A   Clear
2:35 AM 38.1 °F 33.7 °F 32.9 °F 81% 29.90 in 10.0 mi NNE 5.8 mph - N/A   Clear
2:55 AM 38.1 °F 33.7 °F 33.1 °F 82% 29.88 in 10.0 mi NNE 5.8 mph - N/A   Clear
3:15 AM 37.4 °F 33.8 °F 32.9 °F 84% 29.89 in 10.0 mi NNE 4.6 mph - N/A   Clear
3:35 AM 36.5 °F 32.7 °F 32.5 °F 86% 29.88 in 10.0 mi NE 4.6 mph - N/A   Clear
3:55 AM 36.0 °F 32.1 °F 32.5 °F 87% 29.87 in 10.0 mi NE 4.6 mph - N/A   Clear
4:15 AM 36.0 °F 32.1 °F 32.2 °F 86% 29.87 in 10.0 mi NNE 4.6 mph - N/A   Clear
4:35 AM 35.2 °F 31.2 °F 32.2 °F 89% 29.88 in 10.0 mi NNE 4.6 mph - N/A   Clear
4:55 AM 32.4 °F 29.1 °F 31.6 °F 97% 29.89 in 10.0 mi North 3.5 mph - N/A   Scattered Clouds
5:15 AM 35.1 °F 32.2 °F 32.7 °F 91% 29.88 in 10.0 mi NNE 3.5 mph - N/A   Mostly Cloudy
5:35 AM 35.6 °F 31.7 °F 32.5 °F 89% 29.88 in 10.0 mi NNE 4.6 mph - N/A   Overcast
5:55 AM 36.1 °F 32.3 °F 32.7 °F 87% 29.88 in 10.0 mi NNE 4.6 mph - N/A   Overcast
6:15 AM 36.3 °F 32.5 °F 32.4 °F 86% 29.87 in 10.0 mi NNE 4.6 mph - N/A   Mostly Cloudy
6:35 AM 35.6 °F 30.7 °F 32.0 °F 87% 29.86 in 10.0 mi NNE 5.8 mph - N/A   Scattered Clouds
6:55 AM 34.9 °F 32.0 °F 32.0 °F 89% 29.85 in 10.0 mi NNE 3.5 mph - N/A   Clear
7:15 AM 34.3 °F - 31.6 °F 90% 29.87 in 10.0 mi Calm Calm - N/A   Clear
7:35 AM 30.6 °F - 29.8 °F 97% 29.89 in 10.0 mi Calm Calm - N/A   Scattered Clouds
7:55 AM 32.5 °F - 32.2 °F 99% 29.87 in 10.0 mi Calm Calm - N/A   Overcast
8:15 AM 35.8 °F 31.9 °F 32.9 °F 89% 29.87 in 10.0 mi North 4.6 mph - N/A   Overcast
8:35 AM 37.4 °F 32.8 °F 32.5 °F 83% 29.87 in 10.0 mi North 5.8 mph - N/A   Overcast
8:55 AM 38.7 °F 36.3 °F 32.7 °F 79% 29.86 in 10.0 mi NNE 3.5 mph - N/A   Overcast
9:15 AM 39.4 °F 35.2 °F 32.9 °F 78% 29.85 in 10.0 mi NNE 5.8 mph - N/A   Overcast
9:35 AM 38.7 °F 35.2 °F 32.2 °F 78% 29.85 in 10.0 mi NNE 4.6 mph - N/A   Overcast
9:55 AM 39.6 °F 35.4 °F 33.1 °F 78% 29.85 in 10.0 mi NNE 5.8 mph - N/A   Mostly Cloudy
10:15 AM 40.1 °F 36.1 °F 33.3 °F 77% 29.84 in 10.0 mi NNE 5.8 mph - N/A   Scattered Clouds
10:35 AM 41.0 °F 39.0 °F 33.6 °F 75% 29.84 in 10.0 mi NE 3.5 mph - N/A   Clear
10:55 AM 41.9 °F 39.0 °F 33.8 °F 73% 29.82 in 10.0 mi ENE 4.6 mph - N/A   Clear
11:15 AM 44.2 °F 42.7 °F 35.2 °F 71% 29.82 in 10.0 mi SE 3.5 mph - N/A   Clear
11:35 AM 43.5 °F 41.9 °F 35.2 °F 73% 29.80 in 10.0 mi East 3.5 mph - N/A   Scattered Clouds
11:55 AM 43.9 °F - 35.1 °F 71% 29.79 in 10.0 mi Calm Calm - N/A   Mostly Cloudy
12:15 PM 44.1 °F - 35.6 °F 72% 29.77 in 10.0 mi Calm Calm - N/A   Overcast
12:35 PM 44.8 °F - 36.1 °F 72% 29.74 in 10.0 mi Calm Calm - N/A   Overcast
12:55 PM 46.0 °F - 36.5 °F 69% 29.73 in 10.0 mi Calm Calm - N/A   Mostly Cloudy
1:15 PM 45.9 °F 43.6 °F 36.7 °F 70% 29.72 in 10.0 mi North 4.6 mph - N/A   Overcast
1:35 PM 45.5 °F 43.2 °F 37.2 °F 73% 29.72 in 10.0 mi NNW 4.6 mph - N/A   Overcast
1:55 PM 45.5 °F 42.5 °F 37.2 °F 73% 29.71 in 10.0 mi North 5.8 mph - N/A Rain Light Rain
2:15 PM 45.5 °F 42.5 °F 38.1 °F 75% 29.68 in 10.0 mi NNE 5.8 mph - N/A   Light Drizzle
2:35 PM 45.5 °F 41.3 °F 38.5 °F 76% 29.67 in 10.0 mi North 8.1 mph - N/A   Drizzle
2:55 PM 44.6 °F 42.2 °F 38.5 °F 79% 29.66 in 10.0 mi NNE 4.6 mph - N/A   Overcast
3:15 PM 44.6 °F 41.4 °F 38.8 °F 80% 29.65 in 10.0 mi NNE 5.8 mph - N/A   Light Drizzle
3:35 PM 43.9 °F 42.3 °F 38.5 °F 81% 29.66 in 10.0 mi North 3.5 mph - N/A   Overcast
3:55 PM 43.0 °F 39.5 °F 39.9 °F 89% 29.66 in 5.0 mi NNE 5.8 mph - N/A Rain Rain
4:15 PM 41.9 °F 40.0 °F 40.3 °F 94% 29.67 in 4.0 mi NNE 3.5 mph - 0.01 in Rain Rain
4:35 PM 40.6 °F 38.6 °F 39.6 °F 96% 29.67 in 5.0 mi North 3.5 mph - 0.02 in Rain Rain
4:55 PM 40.1 °F 36.9 °F 40.1 °F 100% 29.67 in 3.0 mi North 4.6 mph - 0.04 in Rain Light Rain
5:15 PM 39.9 °F 36.7 °F 39.9 °F 100% 29.66 in 4.0 mi North 4.6 mph - N/A Rain Light Rain
5:35 PM 39.4 °F 36.1 °F 39.4 °F 100% 29.66 in 3.0 mi North 4.6 mph - N/A Rain Light Rain
5:55 PM 39.2 °F 34.2 °F 39.2 °F 100% 29.66 in 3.0 mi North 6.9 mph - N/A Rain Light Rain
6:15 PM 39.0 °F 34.8 °F 39.0 °F 100% 29.66 in 3.0 mi NNE 5.8 mph - N/A Rain Light Rain
6:35 PM 38.7 °F 35.2 °F 38.7 °F 100% 29.67 in 3.0 mi North 4.6 mph - 0.01 in Rain Rain
6:55 PM 38.3 °F 32.5 °F 38.3 °F 100% 29.69 in 2.5 mi NNW 8.1 mph - 0.01 in Rain Light Rain
7:15 PM 37.6 °F 32.3 °F 37.6 °F 100% 29.69 in 2.5 mi NNW 6.9 mph - N/A Rain Light Rain
7:35 PM 36.5 °F 31.8 °F 36.5 °F 100% 29.70 in 3.0 mi NNW 5.8 mph - 0.01 in Rain Light Rain
7:55 PM 36.1 °F 31.4 °F 36.1 °F 100% 29.72 in 2.5 mi NW 5.8 mph - 0.01 in Snow Light Snow
8:15 PM 35.4 °F 32.6 °F 35.4 °F 100% 29.71 in 2.5 mi NW 3.5 mph - 0.01 in Snow Light Snow
8:35 PM 35.6 °F 32.8 °F 35.6 °F 100% 29.72 in 4.0 mi NW 3.5 mph - 0.01 in Rain Light Rain
8:55 PM 36.0 °F 32.1 °F 36.0 °F 100% 29.72 in 4.0 mi NNW 4.6 mph - 0.01 in Rain Light Rain
9:15 PM 36.3 °F 30.8 °F 36.3 °F 100% 29.73 in 5.0 mi NNW 6.9 mph - N/A Rain Light Rain
9:35 PM 36.7 °F 32.0 °F 36.7 °F 100% 29.74 in 5.0 mi NNW 5.8 mph - N/A   Light Drizzle
9:55 PM 36.9 °F 34.3 °F 36.9 °F 100% 29.74 in 7.0 mi North 3.5 mph - N/A   Overcast
10:15 PM 35.4 °F 32.6 °F 35.4 °F 100% 29.75 in 7.0 mi WNW 3.5 mph - N/A   Scattered Clouds
10:35 PM 34.5 °F - 34.5 °F 100% 29.75 in 4.0 mi Calm Calm - N/A   Clear
10:55 PM 34.0 °F - 34.0 °F 100% 29.75 in 5.0 mi Calm Calm - N/A   Scattered Clouds
11:15 PM 32.4 °F - 32.4 °F 100% 29.77 in 2.5 mi Calm Calm - N/A   Clear
11:35 PM 32.0 °F - 32.0 °F 100% 29.78 in 2.5 mi Calm Calm - N/A   Mostly Cloudy
11:55 PM 32.5 °F - 32.5 °F 100% 29.79 in 3.0 mi Calm Calm - N/A   Overcast